Weather in Shaumyanskiy

Russia / Stavropol Krai     44°09′32″N   43°32′06″E
temp.,
°C
wind,
m/s
gust,
m/s
humid.,
%
clouds,
%
prec.,
mm/h
press.,
hPa
HPBL,
m
31 july, sat
sat3100:00+20se22590 0.0 101011
03:00+19ssw226138 0.0 101011
06:00+21ene0058100 0.0 101011
09:00+23nne115178 0.0 1011151
12:00+29nne33325 0.0 10101089
15:00+31n23274 0.0 10091813
18:00+30wnw23363 0.0 100978
21:00+24w33385 0.0 101027
1 august, sun
sun100:00+22w224219 0.0 101013
03:00+21w22495 0.0 101020
06:00+21w22595 0.0 101136
09:00+28nw22405 0.0 1011579
12:00+33ne11305 0.0 10101734
15:00+34e33271 0.0 10092398
18:00+32se2335100 0.0 100994
21:00+25sw3355100 0.0 101040
2 august, mon
mon200:00+22nw116898 0.4 101011
03:00+22w227193 0.9 101012
06:00+22w2270100 0.0 101126
09:00+28nw224755 0.0 1011577
12:00+33nnw22341 0.0 10101726
15:00+34ne322919 0.0 10082531
18:00+33e243682 0.0 1009146
21:00+26se33591 0.1 101033
3 august, tue
tue300:00+24wsw22620 0.0 100911
03:00+23wnw22620 0.0 101025
06:00+22w35640 0.2 101196
09:00+30nw45420 0.2 1011681
12:00+34nw33300 0.0 10091963
15:00+36nnw33210 0.0 10082615
18:00+34wnw23270 0.0 100863
21:00+27w33330 0.0 101020
4 august, wed
wed400:00+25w34470 0.0 101038
03:00+24w513500 0.0 1010259
06:00+25wnw613490 0.0 1012303
09:00+30wnw67400 0.0 1012666
12:00+34nw44310 0.0 10111507
15:00+36nnw32254 0.0 10102900
18:00+34wnw2232100 0.0 101033
21:00+22wnw61279100 0.4 1014440